Terminal Aerodrome Forecast
Issued by NWS Duluth, MN

Home | Current Version | Previous Version | Text Only | Print | Product List | Glossary On
Versions: 1 2 3 4 5 6 7 8 9 10 11 12 13 14 15 16 17 18 19 20 21 22 23 24 25 26 27
000
FTUS43 KDLH 250700 AAC
TAFINL
TAF AMD
KINL 250705Z 2507/2606 06007KT 1SM -SN BR BKN004 OVC010
     FM251200 03006KT 5SM -SNDZ BR OVC006
     FM251600 02010KT P6SM VCSH BKN015 OVC025
     FM260000 04007KT P6SM SCT015 BKN030=

USA.gov is the U.S. government's official web portal to all federal, state and local government web resources and services.